Flag for Netherlands Weather past 2 weeks in Amsterdam, Netherlands

Now
45 °F

Passing clouds.


Feels Like: 38 °F
Forecast: 36 / 48 °F
Wind: 15 mph from Northwest

Location: Amsterdam Schiphol Airport

Current Time: Feb 27, 2015 at 3:14:20 PM

Latest Report: Feb 27, 2015 at 2:55 PM


Visibility: N/A

Pressure: 30.07 "Hg

Humidity: 66%

Dew point: 34 °F

Location of AmsterdamLocation

Historic Weather in Amsterdam — Graph

°F

Amsterdam temperature yesterday

Maximum temperature yesterday: 46 °F (at 1:55 PM)
Minimum temperature yesterday: 39 °F (at 12:25 AM)
Average temperature yesterday: 43 °F

Past Weeks' High & Low Weather Summary

 TemperatureHumidityPressure
High50 °F (Feb 13, 2:55 PM)100% (Feb 15, 11:55 PM)30.74 "Hg (Feb 15, 11:55 PM)
Low27 °F (Feb 16, 4:55 AM)50% (Feb 18, 3:25 PM)29.24 "Hg (Feb 23, 3:25 AM)
Average40 °F87%29.90 "Hg
* Reported Feb 12 1:25 PM — Feb 27 1:55 PM, Amsterdam, Weather by CustomWeather, © 2015

Note: Actual official high and low records may vary slightly from our data, if they occured in-between our weather recording intervals... More about our weather records

Advertising

Amsterdam weather history for previous 24 hours

 ConditionsComfort  
Time TempWeatherWind HumidityBarometerVisibility
1:55 PM
Fri, Feb 27
45 °FScattered clouds.13 mph66%30.04 "HgN/A
1:25 PM43 °FScattered clouds.13 mph71%30.04 "HgN/A
12:55 PM45 °FScattered clouds.14 mph71%30.04 "HgN/A
12:25 PM43 °FScattered clouds.14 mph76%30.04 "HgN/A
11:55 AM43 °FScattered clouds.14 mph76%30.01 "HgN/A
11:25 AM43 °FScattered clouds.14 mph76%30.01 "HgN/A
10:55 AM43 °FScattered clouds.15 mph76%30.01 "HgN/A
10:25 AM43 °FPassing clouds.13 mph76%30.01 "HgN/A
9:55 AM43 °FScattered clouds.12 mph76%29.98 "HgN/A
9:25 AM43 °FScattered clouds.8 mph76%29.98 "HgN/A
8:55 AM41 °FScattered clouds.9 mph81%29.98 "HgN/A
8:25 AM39 °FScattered clouds.7 mph87%29.95 "HgN/A
7:55 AM39 °FPassing clouds.9 mph81%29.95 "HgN/A
7:25 AM39 °FPassing clouds.8 mph81%29.95 "HgN/A
6:55 AM39 °FPassing clouds.8 mph87%29.92 "HgN/A
6:25 AM39 °FPassing clouds.10 mph81%29.92 "HgN/A
5:55 AM39 °FPassing clouds.14 mph87%29.92 "HgN/A
5:25 AM41 °FPassing clouds.12 mph81%29.89 "HgN/A
4:55 AM41 °FPassing clouds.13 mph81%29.89 "HgN/A
4:25 AM41 °FPassing clouds.15 mph87%29.86 "HgN/A
3:55 AM41 °FPassing clouds.13 mph87%29.86 "HgN/A
3:25 AM43 °FPassing clouds.13 mph81%29.86 "HgN/A
2:55 AM41 °FPassing clouds.9 mph87%29.86 "HgN/A
2:25 AM43 °FClear.10 mph87%29.86 "Hg10 mi
1:55 AM43 °FClear.10 mph87%29.83 "Hg10 mi
1:25 AM43 °FPassing clouds.12 mph81%29.83 "HgN/A
12:55 AM43 °FPassing clouds.13 mph87%29.83 "HgN/A
12:25 AM43 °FPassing clouds.13 mph87%29.83 "HgN/A
11:55 PM
Thu, Feb 26
43 °FLow clouds.14 mph93%29.83 "HgN/A
11:25 PM43 °FPartly cloudy.10 mph93%29.80 "HgN/A
10:55 PM43 °FPartly cloudy.13 mph93%29.80 "HgN/A
10:25 PM43 °FPartly cloudy.15 mph93%29.80 "Hg4 mi
9:55 PM45 °FLight rain. Partly cloudy.16 mph93%29.77 "HgN/A
9:25 PM45 °FLight rain. Mostly cloudy.15 mph100%29.77 "HgN/A
8:55 PM46 °FPartly cloudy.12 mph100%29.77 "Hg4 mi
8:25 PM46 °FDrizzle. Fog.7 mph100%29.77 "Hg2 mi
7:55 PM46 °FRain. Mostly cloudy.10 mph100%29.77 "Hg2 mi
7:25 PM46 °FRain. Partly cloudy.13 mph100%29.77 "Hg3 mi
6:55 PM46 °FPartly cloudy.13 mph100%29.77 "Hg2 mi
6:25 PM46 °FDrizzle. Overcast.14 mph100%29.77 "Hg2 mi
5:55 PM46 °FDrizzle. Cloudy.15 mph100%29.77 "Hg2 mi
5:25 PM46 °FDrizzle. Cloudy.15 mph100%29.80 "Hg1 mi
4:55 PM46 °FDrizzle. Mostly cloudy.16 mph100%29.80 "Hg1 mi
4:25 PM46 °FDrizzle. More clouds than sun.16 mph100%29.80 "Hg4 mi
3:55 PM46 °FMostly cloudy.17 mph100%29.83 "Hg4 mi
3:25 PM46 °FDrizzle. Broken clouds.17 mph100%29.83 "Hg2 mi
Weather by CustomWeather, © 2015

See weather overviewHow to use our weather pages